sat.trackr.live / text

‹ back to catalog

ONEWEB-0034

NORAD 45454 · 2020-020AG

PAYLOAD ACTIVE UNKNOWN

§ Identity

Operator
Country
UK
Launch date
2020-03-21
Launch site
TYMSC
Launch vehicle
Mass (kg)
RCS (m²)

Purposes: comms

External: N2YO · Heavens-Above · Gunter

§ Orbital elements

Epoch: 2026-09-03T17:27:29.596032Z

Period
109.80 min
Inclination
87.8962°
Eccentricity
0.0001786
Mean motion
13.11415890 rev/d
Perigee alt
1,216.3 km
Apogee alt
1,219.0 km
Semi-major
7,595.8 km
B*
-2.9718e-4
RAAN
5.4530°
Arg perigee
100.9178°
Mean anomaly
259.2151°
Rev number
31,288

§ Raw data

ONEWEB-00341 45454U 20020AG  26246.72742588 -.00000093  00000+0 -29718-3 0  99922 45454  87.8962   5.4530 0001786 100.9178 259.2151 13.11415890312889

JSON: /api/v1/satellites/45454 · /tle

For live sub-satellite position, see the globe view (requires WebGL).

§ Visibility from observer

Set your observer location to see the next 7 days of passes ≥ 10°. The values pass through the URL so the page stays shareable.

No JS? Fill the form by hand. The geolocation button needs JavaScript.